Location: Unspecified
(43.3830°N, 0.0000°E)
Time: 00:38:46
(UTC+00:00)

Explorer 7 - Pass Details

Date: 28 June 2019
Orbit: 485 x 680 km, 50.3° (Epoch: 19 July)

Event Time Altitude Azimuth Distance (km) Brightness Sun altitude
Rises 10:50:45 0° 297° (WNW) 2,839 10.2 65.0°
Reaches altitude 10° 10:53:03 10° 303° (WNW) 1,968 9.5 65.2°
Maximum altitude 10:57:27 49° 19° (NNE) 825 8.3 65.7°
Drops below altitude 10° 11:02:06 10° 95° (E) 2,068 10.1 66.3°
Sets 11:04:33 0° 100° (E) 2,999 10.8 66.5°
